Location: Alsip
(41.6689°N, 87.7387°W)
Time: 13:01:48
(UTC+00:00)

Cosmos 1943 Rocket - Pass Details

Date: 14 July 2020
Orbit: 811 x 845 km, 71.0° (Epoch: 04 August)

Event Time Altitude Azimuth Distance (km) Brightness Sun altitude
Rises 04:51:13 0° 332° (NNW) 3,411 6.7 -24.9°
Reaches altitude 10° 04:53:42 10° 329° (NNW) 2,470 5.6 -25.1°
Maximum altitude 04:59:16 61° 251° (WSW) 950 2.3 -25.3°
Enters shadow 04:59:52 57° 221° (SW) 981 2.3 -25.4°
